Location: Rioux
(40.7500°S, 175.7500°E)
Time: 21:58:50
(UTC+00:00)

Cosmos 1048 Rocket - Visible Passes

Search period start: 19 September 2024 00:00
Search period end: 29 September 2024 00:00
Orbit: 740 x 788 km, 74.0° (Epoch: 19 September)

Date Brightness Start Highest point End Pass type
(mag) Time Alt. Az. Time Alt. Az. Time Alt. Az.
19 Sep 5.4 07:58:23 10° S 08:01:54 23° SE 08:01:54 23° SE visible
19 Sep 6.0 09:39:46 10° SSW 09:42:07 25° SW 09:42:07 25° SW visible
20 Sep 5.8 07:21:14 10° SSE 07:24:09 15° SE 07:24:53 14° ESE visible
20 Sep 5.0 09:01:27 10° SSW 09:05:05 45° SSW 09:05:05 45° SSW visible
21 Sep 4.2 08:23:22 10° SSW 08:28:08 57° SE 08:28:08 57° SE visible
21 Sep 6.7 10:06:48 10° WSW 10:08:21 14° WSW 10:08:21 14° WSW visible
22 Sep 4.7 07:45:31 10° S 07:50:24 35° ESE 07:51:14 33° E visible
22 Sep 5.8 09:27:40 10° SW 09:31:28 28° W 09:31:28 28° W visible
23 Sep 5.4 07:07:57 10° S 07:12:01 21° ESE 07:14:25 16° E visible
23 Sep 4.6 08:49:07 10° SSW 08:54:18 51° WNW 08:54:38 50° WNW visible
24 Sep 4.0 08:10:51 10° SSW 08:16:14 89° WNW 08:17:54 46° NNE visible
24 Sep 6.8 09:57:07 10° W 09:57:20 10° W 09:57:32 10° W visible
25 Sep 4.2 07:32:48 10° S 07:38:04 53° ESE 07:41:15 23° NE visible
25 Sep 6.3 09:15:54 10° SW 09:19:34 19° W 09:21:30 16° WNW visible
26 Sep 4.9 06:55:00 10° S 06:59:46 31° ESE 07:04:31 10° NE visible
26 Sep 5.6 08:36:57 10° SW 08:41:42 33° W 08:44:58 18° NNW visible
27 Sep 4.6 07:58:27 10° SSW 08:03:43 58° WNW 08:08:34 12° N visible
28 Sep 4.0 07:20:14 10° SSW 07:25:38 82° ESE 07:31:01 10° NNE visible
28 Sep 6.9 09:04:59 10° WSW 09:06:49 12° W 09:08:39 10° WNW visible
